Terminal Aerodrome Forecast
Issued by NWS

Home | Current Version | Previous Version | Text Only | Print | Product List | Glossary Off
Versions: 1 2 3 4 5 6 7 8 9 10 11 12 13 14 15 16 17

000
FTUS43 KMPX 171410 AAA
TAFAXN
TAF AMD
KAXN 171410Z 1714/1812 33012G20KT P6SM SCT007 BKN012
     FM171430 33014G21KT 6SM BR OVC007
     FM171700 33018G26KT P6SM OVC015
     FM172000 32014G21KT P6SM SCT025
     FM180200 32009KT P6SM SKC
     FM181000 26005KT P6SM SCT120=

USA.gov is the U.S. government's official web portal to all federal, state and local government web resources and services.